Terug naar catalogus

STARLINK-30949

ActiefCommunicatieVLEO
NORAD 58415·PAYLOAD·🇺🇸 United States

Gelanceerd Nov 22, 2023 vanaf Cape Canaveral Space Force Station

Loading…

Volgende Passages (komende 24 uur)

TLE

VersSource: CelesTrak SupGP

Epoch: Sep 15, 2026, 03:09 UTC

1 58415C 23180P   26258.13173611 -.00027344  00000+0 -99029-3 0  2584
2 58415  43.0031  62.7132 0001386 266.6008 250.4806 15.27595642    15

Volg STARLINK-30949 in realtime met AllMySat

Download on the App Store